Terminal Aerodrome Forecast
Issued by NWS Newport/Morehead City, NC

Home | Current Version | Previous Version | Graphics & Text | Print | Product List | Glossary On
Versions: 1 2 3 4 5 6 7 8 9 10 11 12 13 14 15 16 17 18 19
000
FTUS42 KMHX 041122
TAFEWN
TAF
KEWN 041122Z 0412/0512 19005KT P6SM BKN100
     FM041500 19010KT P6SM VCSH OVC050
     FM042100 19010KT P6SM BKN050
     FM050100 21005KT P6SM SCT250=

USA.gov is the U.S. government's official web portal to all federal, state and local government web resources and services.